Flag for Brazil Weather past 2 weeks in Rio de Janeiro, Rio de Janeiro, Brazil

Now
66 °F

Clear.


Feels Like: 66 °F
Forecast: 64 / 86 °F
Wind: 6 mph from North

Location: Rio De Janeiro Airport

Current Time: Aug 30, 2015 at 12:53:51 AM

Latest Report: Aug 30, 2015 at 12:00 AM


Visibility: 10 mi

Pressure: 30.12 "Hg

Humidity: 88%

Dew point: 63 °F

Location of Rio de JaneiroLocation

Historic Weather in Rio de Janeiro — Graph

°F

Rio de Janeiro temperature yesterday

Maximum temperature yesterday: 77 °F (at 12:00 PM)
Minimum temperature yesterday: 64 °F (at 1:00 AM)
Average temperature yesterday: 70 °F

Past Weeks' High & Low Weather Summary

 TemperatureHumidityPressure
High86 °F (Aug 18, 1:00 PM)100% (Aug 21, 1:00 AM)30.24 "Hg (Aug 21, 1:00 AM)
Low64 °F (Aug 21, 1:00 AM)38% (Aug 18, 1:00 PM)29.80 "Hg (Aug 19, 3:00 PM)
Average72 °F77%30.06 "Hg
* Reported Midnight between Aug 14 and Aug 15 — Midnight between Aug 29 and Aug 30, Rio de Janeiro, Weather by CustomWeather, © 2015

Note: Actual official high and low records may vary slightly from our data, if they occured in-between our weather recording intervals... More about our weather records

Advertising

Rio de Janeiro weather history for previous 24 hours

 ConditionsComfort  
Time TempWeatherWind HumidityBarometerVisibility
12:00 AM
Sun, Aug 30
66 °FClear.6 mph88%30.12 "Hg10 mi
11:00 PM
Sat, Aug 29
68 °FClear.No wind83%30.12 "Hg10 mi
10:00 PM68 °FClear.No wind83%30.15 "Hg10 mi
9:00 PM68 °FClear.6 mph83%30.15 "Hg10 mi
8:00 PM68 °FClear.8 mph83%30.12 "Hg10 mi
7:00 PM70 °FClear.12 mph78%30.12 "Hg10 mi
6:00 PM70 °FClear.14 mph78%30.09 "Hg10 mi
5:00 PM73 °FClear.14 mph69%30.09 "Hg10 mi
4:00 PM75 °FPassing clouds.13 mph65%30.09 "HgN/A
3:00 PM75 °FPassing clouds.13 mph65%30.09 "HgN/A
2:00 PM77 °FPassing clouds.13 mph61%30.12 "HgN/A
1:00 PM77 °FPassing clouds.13 mph65%30.18 "HgN/A
12:00 PM77 °FPassing clouds.12 mph65%30.18 "HgN/A
11:00 AM75 °FPassing clouds.12 mph69%30.21 "HgN/A
10:00 AM75 °FScattered clouds.7 mph65%30.21 "HgN/A
9:00 AM73 °FPassing clouds.5 mph69%30.24 "HgN/A
8:00 AM70 °FScattered clouds.3 mph78%30.21 "HgN/A
7:00 AM70 °FScattered clouds.5 mph78%30.21 "HgN/A
6:00 AM68 °FPartly sunny.1 mph83%30.18 "HgN/A
5:00 AM66 °FPassing clouds.3 mph94%30.18 "HgN/A
4:00 AM66 °FPassing clouds.1 mph94%30.15 "HgN/A
3:00 AM64 °FPassing clouds.2 mph94%30.15 "HgN/A
2:00 AM64 °FPassing clouds.3 mph94%30.15 "HgN/A
1:00 AM64 °FPassing clouds.3 mph94%30.18 "HgN/A
12:00 AM66 °FPassing clouds.2 mph88%30.21 "HgN/A
Weather by CustomWeather, © 2015

See weather overviewHow to use our weather pages